Year,Month,Day,Hour,Minute,Value (Times are PST for temperature in C)
2009,07,26,00,00,17.90
2009,07,26,00,01,17.90
2009,07,26,00,02,17.90
2009,07,26,00,03,17.80
2009,07,26,00,04,17.80
2009,07,26,00,05,17.70
2009,07,26,00,06,17.70
2009,07,26,00,07,17.70
2009,07,26,00,08,17.60
2009,07,26,00,09,17.60
2009,07,26,00,10,17.60
2009,07,26,00,11,17.50
2009,07,26,00,12,17.50
2009,07,26,00,13,17.50
2009,07,26,00,14,17.40
2009,07,26,00,15,17.40
2009,07,26,00,16,17.40
2009,07,26,00,17,17.30
2009,07,26,00,18,17.30
2009,07,26,00,19,17.30
2009,07,26,00,20,17.30
2009,07,26,00,21,17.30
2009,07,26,00,22,17.30
2009,07,26,00,23,17.30
2009,07,26,00,24,17.30
2009,07,26,00,25,17.30
2009,07,26,00,26,17.30
2009,07,26,00,27,17.30
2009,07,26,00,28,17.30
2009,07,26,00,29,17.30
2009,07,26,00,30,17.30
2009,07,26,00,31,17.30
2009,07,26,00,32,17.30
2009,07,26,00,33,17.30
2009,07,26,00,34,17.30
2009,07,26,00,35,17.30
2009,07,26,00,36,17.30
2009,07,26,00,37,17.30
2009,07,26,00,38,17.40
2009,07,26,00,39,17.40
2009,07,26,00,40,17.40
2009,07,26,00,41,17.40
2009,07,26,00,42,17.50
2009,07,26,00,43,17.50
2009,07,26,00,44,17.50
2009,07,26,00,45,17.60
2009,07,26,00,46,17.60
2009,07,26,00,47,17.60
2009,07,26,00,48,17.70
2009,07,26,00,49,17.70
2009,07,26,00,50,17.70
2009,07,26,00,51,17.70
2009,07,26,00,52,17.80
2009,07,26,00,53,17.80
2009,07,26,00,54,17.90
2009,07,26,00,55,17.90
2009,07,26,00,56,17.90
2009,07,26,00,57,17.90
2009,07,26,00,58,17.90
2009,07,26,00,59,17.90
2009,07,26,01,00,17.90
2009,07,26,01,01,17.90
2009,07,26,01,02,17.90
2009,07,26,01,03,17.90
2009,07,26,01,04,17.90
2009,07,26,01,05,17.90
2009,07,26,01,06,17.90
2009,07,26,01,07,17.90
2009,07,26,01,08,17.80
2009,07,26,01,09,17.70
2009,07,26,01,10,17.60
2009,07,26,01,11,17.60
2009,07,26,01,12,17.50
2009,07,26,01,13,17.50
2009,07,26,01,14,17.40
2009,07,26,01,15,17.40
2009,07,26,01,16,17.40
2009,07,26,01,17,17.30
2009,07,26,01,18,17.30
2009,07,26,01,19,17.30
2009,07,26,01,20,17.30
2009,07,26,01,21,17.30
2009,07,26,01,22,17.30
2009,07,26,01,23,17.30
2009,07,26,01,24,17.30
2009,07,26,01,25,17.30
2009,07,26,01,26,17.30
2009,07,26,01,27,17.30
2009,07,26,01,28,17.30
2009,07,26,01,29,17.20
2009,07,26,01,30,17.10
2009,07,26,01,31,16.90
2009,07,26,01,32,16.80
2009,07,26,01,33,16.80
2009,07,26,01,34,16.80
2009,07,26,01,35,16.80
2009,07,26,01,36,16.80
2009,07,26,01,37,16.80
2009,07,26,01,38,16.80
2009,07,26,01,39,16.60
2009,07,26,01,40,16.60
2009,07,26,01,41,16.60
2009,07,26,01,42,16.50
2009,07,26,01,43,16.40
2009,07,26,01,44,16.40
2009,07,26,01,45,16.40
2009,07,26,01,46,16.40
2009,07,26,01,47,16.50
2009,07,26,01,48,16.60
2009,07,26,01,49,16.60
2009,07,26,01,50,16.60
2009,07,26,01,51,16.70
2009,07,26,01,52,16.70
2009,07,26,01,53,16.70
2009,07,26,01,54,16.70
2009,07,26,01,55,16.70
2009,07,26,01,56,16.70
2009,07,26,01,57,16.70
2009,07,26,01,58,16.70
2009,07,26,01,59,16.70
2009,07,26,02,00,16.70
2009,07,26,02,01,16.70
2009,07,26,02,02,16.80
2009,07,26,02,03,16.90
2009,07,26,02,04,16.90
2009,07,26,02,05,17.00
2009,07,26,02,06,17.10
2009,07,26,02,07,17.20
2009,07,26,02,08,17.30
2009,07,26,02,09,17.30
2009,07,26,02,10,17.40
2009,07,26,02,11,17.50
2009,07,26,02,12,17.60
2009,07,26,02,13,17.70
2009,07,26,02,14,17.80
2009,07,26,02,15,17.80
2009,07,26,02,16,17.90
2009,07,26,02,17,18.00
2009,07,26,02,18,18.10
2009,07,26,02,19,18.20
2009,07,26,02,20,18.20
2009,07,26,02,21,18.20
2009,07,26,02,22,18.20
2009,07,26,02,23,18.30
2009,07,26,02,24,18.30
2009,07,26,02,25,18.40
2009,07,26,02,26,18.40
2009,07,26,02,27,18.50
2009,07,26,02,28,18.50
2009,07,26,02,29,18.60
2009,07,26,02,30,18.60
2009,07,26,02,31,18.60
2009,07,26,02,32,18.20
2009,07,26,02,33,17.50
2009,07,26,02,34,17.00
2009,07,26,02,35,16.50
2009,07,26,02,36,16.30
2009,07,26,02,37,16.20
2009,07,26,02,38,16.10
2009,07,26,02,39,16.00
2009,07,26,02,40,15.80
2009,07,26,02,41,15.50
2009,07,26,02,42,15.30
2009,07,26,02,43,15.10
2009,07,26,02,44,15.00
2009,07,26,02,45,14.80
2009,07,26,02,46,14.70
2009,07,26,02,47,14.60
2009,07,26,02,48,14.50
2009,07,26,02,49,14.40
2009,07,26,02,50,14.40
2009,07,26,02,51,14.30
2009,07,26,02,52,14.30
2009,07,26,02,53,14.30
2009,07,26,02,54,14.30
2009,07,26,02,55,14.20
2009,07,26,02,56,14.20
2009,07,26,02,57,14.30
2009,07,26,02,58,14.30
2009,07,26,02,59,14.40
2009,07,26,03,00,14.50
2009,07,26,03,01,14.50
2009,07,26,03,02,14.60
2009,07,26,03,03,14.60
2009,07,26,03,04,14.80
2009,07,26,03,05,14.90
2009,07,26,03,06,15.10
2009,07,26,03,07,15.20
2009,07,26,03,08,15.30
2009,07,26,03,09,15.40
2009,07,26,03,10,15.50
2009,07,26,03,11,15.50
2009,07,26,03,12,15.50
2009,07,26,03,13,15.50
2009,07,26,03,14,15.50
2009,07,26,03,15,15.60
2009,07,26,03,16,15.70
2009,07,26,03,17,15.80
2009,07,26,03,18,15.80
2009,07,26,03,19,15.80
2009,07,26,03,20,15.90
2009,07,26,03,21,16.00
2009,07,26,03,22,16.10
2009,07,26,03,23,16.20
2009,07,26,03,24,16.30
2009,07,26,03,25,16.50
2009,07,26,03,26,16.80
2009,07,26,03,27,17.10
2009,07,26,03,28,17.40
2009,07,26,03,29,17.70
2009,07,26,03,30,17.80
2009,07,26,03,31,18.00
2009,07,26,03,32,18.10
2009,07,26,03,33,18.30
2009,07,26,03,34,18.40
2009,07,26,03,35,18.50
2009,07,26,03,36,18.60
2009,07,26,03,37,18.60
2009,07,26,03,38,18.70
2009,07,26,03,39,18.90
2009,07,26,03,40,18.90
2009,07,26,03,41,19.00
2009,07,26,03,42,19.10
2009,07,26,03,43,19.10
2009,07,26,03,44,19.10
2009,07,26,03,45,19.10
2009,07,26,03,46,19.00
2009,07,26,03,47,18.70
2009,07,26,03,48,18.40
2009,07,26,03,49,18.20
2009,07,26,03,50,18.00
2009,07,26,03,51,17.90
2009,07,26,03,52,17.80
2009,07,26,03,53,17.70
2009,07,26,03,54,17.60
2009,07,26,03,55,17.50
2009,07,26,03,56,17.50
2009,07,26,03,57,17.40
2009,07,26,03,58,17.30
2009,07,26,03,59,17.20
2009,07,26,04,00,17.20
2009,07,26,04,01,17.10
2009,07,26,04,02,17.00
2009,07,26,04,03,17.00
2009,07,26,04,04,16.90
2009,07,26,04,05,16.80
2009,07,26,04,06,16.70
2009,07,26,04,07,16.70
2009,07,26,04,08,16.60
2009,07,26,04,09,16.50
2009,07,26,04,10,16.40
2009,07,26,04,11,16.40
2009,07,26,04,12,16.30
2009,07,26,04,13,16.30
2009,07,26,04,14,16.30
2009,07,26,04,15,16.20
2009,07,26,04,16,16.20
2009,07,26,04,17,16.20
2009,07,26,04,18,16.20
2009,07,26,04,19,16.20
2009,07,26,04,20,16.20
2009,07,26,04,21,16.20
2009,07,26,04,22,16.20
2009,07,26,04,23,16.20
2009,07,26,04,24,16.20
2009,07,26,04,25,16.20
2009,07,26,04,26,16.20
2009,07,26,04,27,16.10
2009,07,26,04,28,16.10
2009,07,26,04,29,16.10
2009,07,26,04,30,16.10
2009,07,26,04,31,16.10
2009,07,26,04,32,16.10
2009,07,26,04,33,16.20
2009,07,26,04,34,16.20
2009,07,26,04,35,16.20
2009,07,26,04,36,16.20
2009,07,26,04,37,16.20
2009,07,26,04,38,16.20
2009,07,26,04,39,16.20
2009,07,26,04,40,16.20
2009,07,26,04,41,16.20
2009,07,26,04,42,16.20
2009,07,26,04,43,16.20
2009,07,26,04,44,16.20
2009,07,26,04,45,16.20
2009,07,26,04,46,16.20
2009,07,26,04,47,16.20
2009,07,26,04,48,16.20
2009,07,26,04,49,16.20
2009,07,26,04,50,16.20
2009,07,26,04,51,16.20
2009,07,26,04,52,16.20
2009,07,26,04,53,16.30
2009,07,26,04,54,16.30
2009,07,26,04,55,16.40
2009,07,26,04,56,16.40
2009,07,26,04,57,16.40
2009,07,26,04,58,16.50
2009,07,26,04,59,16.60
2009,07,26,05,00,16.60
2009,07,26,05,01,16.70
2009,07,26,05,02,16.70
2009,07,26,05,03,16.70
2009,07,26,05,04,16.80
2009,07,26,05,05,16.80
2009,07,26,05,06,16.80
2009,07,26,05,07,16.90
2009,07,26,05,08,16.90
2009,07,26,05,09,16.90
2009,07,26,05,10,16.90
2009,07,26,05,11,16.90
2009,07,26,05,12,16.90
2009,07,26,05,13,16.90
2009,07,26,05,14,16.90
2009,07,26,05,15,16.90
2009,07,26,05,16,16.90
2009,07,26,05,17,17.00
2009,07,26,05,18,17.00
2009,07,26,05,19,17.00
2009,07,26,05,20,17.00
2009,07,26,05,21,17.00
2009,07,26,05,22,17.00
2009,07,26,05,23,17.00
2009,07,26,05,24,17.00
2009,07,26,05,25,17.10
2009,07,26,05,26,17.20
2009,07,26,05,27,17.20
2009,07,26,05,28,17.20
2009,07,26,05,29,17.30
2009,07,26,05,30,17.30
2009,07,26,05,31,17.30
2009,07,26,05,32,17.30
2009,07,26,05,33,17.30
2009,07,26,05,34,17.30
2009,07,26,05,35,17.30
2009,07,26,05,36,17.30
2009,07,26,05,37,17.30
2009,07,26,05,38,17.30
2009,07,26,05,39,17.30
2009,07,26,05,40,17.30
2009,07,26,05,41,17.30
2009,07,26,05,42,17.30
2009,07,26,05,43,17.30
2009,07,26,05,44,17.30
2009,07,26,05,45,17.30
2009,07,26,05,46,17.30
2009,07,26,05,47,17.30
2009,07,26,05,48,17.40
2009,07,26,05,49,17.40
2009,07,26,05,50,17.50
2009,07,26,05,51,17.50
2009,07,26,05,52,17.50
2009,07,26,05,53,17.60
2009,07,26,05,54,17.70
2009,07,26,05,55,17.70
2009,07,26,05,56,17.80
2009,07,26,05,57,17.90
2009,07,26,05,58,17.90
2009,07,26,05,59,17.90
2009,07,26,06,00,17.90
2009,07,26,06,01,17.90
2009,07,26,06,02,17.90
2009,07,26,06,03,17.70
2009,07,26,06,04,17.40
2009,07,26,06,05,17.20
2009,07,26,06,06,16.70
2009,07,26,06,07,16.00
2009,07,26,06,08,15.60
2009,07,26,06,09,15.40
2009,07,26,06,10,15.30
2009,07,26,06,11,15.10
2009,07,26,06,12,15.10
2009,07,26,06,13,15.00
2009,07,26,06,14,15.00
2009,07,26,06,15,14.90
2009,07,26,06,16,15.00
2009,07,26,06,17,15.00
2009,07,26,06,18,15.00
2009,07,26,06,19,15.00
2009,07,26,06,20,15.10
2009,07,26,06,21,15.10
2009,07,26,06,22,15.10
2009,07,26,06,23,15.20
2009,07,26,06,24,15.20
2009,07,26,06,25,15.30
2009,07,26,06,26,15.40
2009,07,26,06,27,15.50
2009,07,26,06,28,15.60
2009,07,26,06,29,15.70
2009,07,26,06,30,15.90
2009,07,26,06,31,16.10
2009,07,26,06,32,16.30
2009,07,26,06,33,16.50
2009,07,26,06,34,16.70
2009,07,26,06,35,16.90
2009,07,26,06,36,16.70
2009,07,26,06,37,16.40
2009,07,26,06,38,16.20
2009,07,26,06,39,16.10
2009,07,26,06,40,16.10
2009,07,26,06,41,16.10
2009,07,26,06,42,16.10
2009,07,26,06,43,16.20
2009,07,26,06,44,16.10
2009,07,26,06,45,16.10
2009,07,26,06,46,16.10
2009,07,26,06,47,16.10
2009,07,26,06,48,16.20
2009,07,26,06,49,16.40
2009,07,26,06,50,16.50
2009,07,26,06,51,16.60
2009,07,26,06,52,16.70
2009,07,26,06,53,16.80
2009,07,26,06,54,16.90
2009,07,26,06,55,16.90
2009,07,26,06,56,17.00
2009,07,26,06,57,17.10
2009,07,26,06,58,17.20
2009,07,26,06,59,17.20
2009,07,26,07,00,17.30
2009,07,26,07,01,17.30
2009,07,26,07,02,17.30
2009,07,26,07,03,17.30
2009,07,26,07,04,17.30
2009,07,26,07,05,17.30
2009,07,26,07,06,17.30
2009,07,26,07,07,17.30
2009,07,26,07,08,17.30
2009,07,26,07,09,17.40
2009,07,26,07,10,17.40
2009,07,26,07,11,17.40
2009,07,26,07,12,17.40
2009,07,26,07,13,17.50
2009,07,26,07,14,17.50
2009,07,26,07,15,17.50
2009,07,26,07,16,17.60
2009,07,26,07,17,17.60
2009,07,26,07,18,17.60
2009,07,26,07,19,17.60
2009,07,26,07,20,17.70
2009,07,26,07,21,17.70
2009,07,26,07,22,17.70
2009,07,26,07,23,17.70
2009,07,26,07,24,17.70
2009,07,26,07,25,17.80
2009,07,26,07,26,17.90
2009,07,26,07,27,17.90
2009,07,26,07,28,18.00
2009,07,26,07,29,18.10
2009,07,26,07,30,18.20
2009,07,26,07,31,18.20
2009,07,26,07,32,18.30
2009,07,26,07,33,18.40
2009,07,26,07,34,18.40
2009,07,26,07,35,18.50
2009,07,26,07,36,18.50
2009,07,26,07,37,18.60
2009,07,26,07,38,18.70
2009,07,26,07,39,18.80
2009,07,26,07,40,18.90
2009,07,26,07,41,18.80
2009,07,26,07,42,18.80
2009,07,26,07,43,18.80
2009,07,26,07,44,18.80
2009,07,26,07,45,18.80
2009,07,26,07,46,18.80
2009,07,26,07,47,18.80
2009,07,26,07,48,18.80
2009,07,26,07,49,18.90
2009,07,26,07,50,18.90
2009,07,26,07,51,19.00
2009,07,26,07,52,19.10
2009,07,26,07,53,19.20
2009,07,26,07,54,19.40
2009,07,26,07,55,19.50
2009,07,26,07,56,19.60
2009,07,26,07,57,19.70
2009,07,26,07,58,19.80
2009,07,26,07,59,19.90
2009,07,26,08,00,19.60
2009,07,26,08,01,19.20
2009,07,26,08,02,19.00
2009,07,26,08,03,18.80
2009,07,26,08,04,18.60
2009,07,26,08,05,18.20
2009,07,26,08,06,17.70
2009,07,26,08,07,17.40
2009,07,26,08,08,17.30
2009,07,26,08,09,17.10
2009,07,26,08,10,17.00
2009,07,26,08,11,16.90
2009,07,26,08,12,16.80
2009,07,26,08,13,16.70
2009,07,26,08,14,16.60
2009,07,26,08,15,16.60
2009,07,26,08,16,16.70
2009,07,26,08,17,16.70
2009,07,26,08,18,16.70
2009,07,26,08,19,16.80
2009,07,26,08,20,16.80
2009,07,26,08,21,16.90
2009,07,26,08,22,16.90
2009,07,26,08,23,17.00
2009,07,26,08,24,17.00
2009,07,26,08,25,17.00
2009,07,26,08,26,17.10
2009,07,26,08,27,17.30
2009,07,26,08,28,17.40
2009,07,26,08,29,17.60
2009,07,26,08,30,17.80
2009,07,26,08,31,17.90
2009,07,26,08,32,17.90
2009,07,26,08,33,17.90
2009,07,26,08,34,17.90
2009,07,26,08,35,17.90
2009,07,26,08,36,17.90
2009,07,26,08,37,18.00
2009,07,26,08,38,18.10
2009,07,26,08,39,18.20
2009,07,26,08,40,18.20
2009,07,26,08,41,18.30
2009,07,26,08,42,18.40
2009,07,26,08,43,18.50
2009,07,26,08,44,18.50
2009,07,26,08,45,18.60
2009,07,26,08,46,18.60
2009,07,26,08,47,18.70
2009,07,26,08,48,18.70
2009,07,26,08,49,18.80
2009,07,26,08,50,18.90
2009,07,26,08,51,19.00
2009,07,26,08,52,19.10
2009,07,26,08,53,19.10
2009,07,26,08,54,19.10
2009,07,26,08,55,19.10
2009,07,26,08,56,19.10
2009,07,26,08,57,19.10
2009,07,26,08,58,19.10
2009,07,26,08,59,19.10
2009,07,26,09,00,19.10
2009,07,26,09,01,19.20
2009,07,26,09,02,19.30
2009,07,26,09,03,19.30
2009,07,26,09,04,19.30
2009,07,26,09,05,19.30
2009,07,26,09,06,19.30
2009,07,26,09,07,19.30
2009,07,26,09,08,19.40
2009,07,26,09,09,19.40
2009,07,26,09,10,19.30
2009,07,26,09,11,19.30
2009,07,26,09,12,19.30
2009,07,26,09,13,19.30
2009,07,26,09,14,19.30
2009,07,26,09,15,19.40
2009,07,26,09,16,19.40
2009,07,26,09,17,19.40
2009,07,26,09,18,19.50
2009,07,26,09,19,19.60
2009,07,26,09,20,19.60
2009,07,26,09,21,19.60
2009,07,26,09,22,19.60
2009,07,26,09,23,19.50
2009,07,26,09,24,19.40
2009,07,26,09,25,19.20
2009,07,26,09,26,19.20
2009,07,26,09,27,19.20
2009,07,26,09,28,19.30
2009,07,26,09,29,19.30
2009,07,26,09,30,19.20
2009,07,26,09,31,19.20
2009,07,26,09,32,19.30
2009,07,26,09,33,19.40
2009,07,26,09,34,19.40
2009,07,26,09,35,19.40
2009,07,26,09,36,19.40
2009,07,26,09,37,19.40
2009,07,26,09,38,19.40
2009,07,26,09,39,19.40
2009,07,26,09,40,19.40
2009,07,26,09,41,19.20
2009,07,26,09,42,19.10
2009,07,26,09,43,19.00
2009,07,26,09,44,18.90
2009,07,26,09,45,18.90
2009,07,26,09,46,18.90
2009,07,26,09,47,19.00
2009,07,26,09,48,19.10
2009,07,26,09,49,19.20
2009,07,26,09,50,19.30
2009,07,26,09,51,19.40
2009,07,26,09,52,19.40
2009,07,26,09,53,19.50
2009,07,26,09,54,19.50
2009,07,26,09,55,19.60
2009,07,26,09,56,19.70
2009,07,26,09,57,19.80
2009,07,26,09,58,19.80
2009,07,26,09,59,19.80
2009,07,26,10,00,19.80
2009,07,26,10,01,19.90
2009,07,26,10,02,19.90
2009,07,26,10,03,20.10
2009,07,26,10,04,20.10
2009,07,26,10,05,20.10
2009,07,26,10,06,20.10
2009,07,26,10,07,20.20
2009,07,26,10,08,20.20
2009,07,26,10,09,20.30
2009,07,26,10,10,20.50
2009,07,26,10,11,20.50
2009,07,26,10,12,20.40
2009,07,26,10,13,20.40
2009,07,26,10,14,20.40
2009,07,26,10,15,20.30
2009,07,26,10,16,20.40
2009,07,26,10,17,20.50
2009,07,26,10,18,20.60
2009,07,26,10,19,20.70
2009,07,26,10,20,20.80
2009,07,26,10,21,20.90
2009,07,26,10,22,20.90
2009,07,26,10,23,20.80
2009,07,26,10,24,20.70
2009,07,26,10,25,20.60
2009,07,26,10,26,20.60
2009,07,26,10,27,20.60
2009,07,26,10,28,20.60
2009,07,26,10,29,20.50
2009,07,26,10,30,20.50
2009,07,26,10,31,20.50
2009,07,26,10,32,20.40
2009,07,26,10,33,20.30
2009,07,26,10,34,20.30
2009,07,26,10,35,20.30
2009,07,26,10,36,20.30
2009,07,26,10,37,20.30
2009,07,26,10,38,20.30
2009,07,26,10,39,20.20
2009,07,26,10,40,20.30
2009,07,26,10,41,20.40
2009,07,26,10,42,20.40
2009,07,26,10,43,20.50
2009,07,26,10,44,20.40
2009,07,26,10,45,20.30
2009,07,26,10,46,20.30
2009,07,26,10,47,20.40
2009,07,26,10,48,20.40
2009,07,26,10,49,20.40
2009,07,26,10,50,20.50
2009,07,26,10,51,20.50
2009,07,26,10,52,20.60
2009,07,26,10,53,20.70
2009,07,26,10,54,20.80
2009,07,26,10,55,20.90
2009,07,26,10,56,20.90
2009,07,26,10,57,21.00
2009,07,26,10,58,21.00
2009,07,26,10,59,21.00
2009,07,26,11,00,21.10
2009,07,26,11,01,21.20
2009,07,26,11,02,21.40
2009,07,26,11,03,21.60
2009,07,26,11,04,21.50
2009,07,26,11,05,21.50
2009,07,26,11,06,21.60
2009,07,26,11,07,21.60
2009,07,26,11,08,21.60
2009,07,26,11,09,21.80
2009,07,26,11,10,21.90
2009,07,26,11,11,21.90
2009,07,26,11,12,21.80
2009,07,26,11,13,21.80
2009,07,26,11,14,21.90
2009,07,26,11,15,21.90
2009,07,26,11,16,21.90
2009,07,26,11,17,21.70
2009,07,26,11,18,21.60
2009,07,26,11,19,21.60
2009,07,26,11,20,21.60
2009,07,26,11,21,21.50
2009,07,26,11,22,21.30
2009,07,26,11,23,21.20
2009,07,26,11,24,20.90
2009,07,26,11,25,20.80
2009,07,26,11,26,20.70
2009,07,26,11,27,20.50
2009,07,26,11,28,20.20
2009,07,26,11,29,19.60
2009,07,26,11,30,19.10
2009,07,26,11,31,18.70
2009,07,26,11,32,18.30
2009,07,26,11,33,18.00
2009,07,26,11,34,17.70
2009,07,26,11,35,17.60
2009,07,26,11,36,17.40
2009,07,26,11,37,17.30
2009,07,26,11,38,17.30
2009,07,26,11,39,17.30
2009,07,26,11,40,17.30
2009,07,26,11,41,17.30
2009,07,26,11,42,17.40
2009,07,26,11,43,17.50
2009,07,26,11,44,17.60
2009,07,26,11,45,17.70
2009,07,26,11,46,17.70
2009,07,26,11,47,17.70
2009,07,26,11,48,17.70
2009,07,26,11,49,17.70
2009,07,26,11,50,17.70
2009,07,26,11,51,17.70
2009,07,26,11,52,17.80
2009,07,26,11,53,17.90
2009,07,26,11,54,18.00
2009,07,26,11,55,18.20
2009,07,26,11,56,18.40
2009,07,26,11,57,18.70
2009,07,26,11,58,19.00
2009,07,26,11,59,19.20
2009,07,26,12,00,19.40
2009,07,26,12,01,19.50
2009,07,26,12,02,19.60
2009,07,26,12,03,19.70
2009,07,26,12,04,19.80
2009,07,26,12,05,20.00
2009,07,26,12,06,20.20
2009,07,26,12,07,20.40
2009,07,26,12,08,20.60
2009,07,26,12,09,20.80
2009,07,26,12,10,21.00
2009,07,26,12,11,21.10
2009,07,26,12,12,21.30
2009,07,26,12,13,21.40
2009,07,26,12,14,21.40
2009,07,26,12,15,21.40
2009,07,26,12,16,21.40
2009,07,26,12,17,21.40
2009,07,26,12,18,21.40
2009,07,26,12,19,21.40
2009,07,26,12,20,21.50
2009,07,26,12,21,21.60
2009,07,26,12,22,21.60
2009,07,26,12,23,21.60
2009,07,26,12,24,21.60
2009,07,26,12,25,21.70
2009,07,26,12,26,21.80
2009,07,26,12,27,21.80
2009,07,26,12,28,21.90
2009,07,26,12,29,22.00
2009,07,26,12,30,22.00
2009,07,26,12,31,22.00
2009,07,26,12,32,22.10
2009,07,26,12,33,22.10
2009,07,26,12,34,22.10
2009,07,26,12,35,22.20
2009,07,26,12,36,22.20
2009,07,26,12,37,22.30
2009,07,26,12,38,22.40
2009,07,26,12,39,22.40
2009,07,26,12,40,22.40
2009,07,26,12,41,22.50
2009,07,26,12,42,22.60
2009,07,26,12,43,22.60
2009,07,26,12,44,22.70
2009,07,26,12,45,22.70
2009,07,26,12,46,22.70
2009,07,26,12,47,22.70
2009,07,26,12,48,22.60
2009,07,26,12,49,22.60
2009,07,26,12,50,22.50
2009,07,26,12,51,22.60
2009,07,26,12,52,22.60
2009,07,26,12,53,22.60
2009,07,26,12,54,22.60
2009,07,26,12,55,22.60
2009,07,26,12,56,22.60
2009,07,26,12,57,22.60
2009,07,26,12,58,22.70
2009,07,26,12,59,22.80
2009,07,26,13,00,22.80
2009,07,26,13,01,22.80
2009,07,26,13,02,22.90
2009,07,26,13,03,22.90
2009,07,26,13,04,22.90
2009,07,26,13,05,22.80
2009,07,26,13,06,22.80
2009,07,26,13,07,22.70
2009,07,26,13,08,22.50
2009,07,26,13,09,22.40
2009,07,26,13,10,22.30
2009,07,26,13,11,22.30
2009,07,26,13,12,22.20
2009,07,26,13,13,22.20
2009,07,26,13,14,22.10
2009,07,26,13,15,22.00
2009,07,26,13,16,21.90
2009,07,26,13,17,22.00
2009,07,26,13,18,21.90
2009,07,26,13,19,21.80
2009,07,26,13,20,21.60
2009,07,26,13,21,21.60
2009,07,26,13,22,21.60
2009,07,26,13,23,21.60
2009,07,26,13,24,21.60
2009,07,26,13,25,21.60
2009,07,26,13,26,21.60
2009,07,26,13,27,21.60
2009,07,26,13,28,21.60
2009,07,26,13,29,21.60
2009,07,26,13,30,21.60
2009,07,26,13,31,21.50
2009,07,26,13,32,21.40
2009,07,26,13,33,21.30
2009,07,26,13,34,21.10
2009,07,26,13,35,21.00
2009,07,26,13,36,21.00
2009,07,26,13,37,21.10
2009,07,26,13,38,21.10
2009,07,26,13,39,21.10
2009,07,26,13,40,21.10
2009,07,26,13,41,21.10
2009,07,26,13,42,21.20
2009,07,26,13,43,21.20
2009,07,26,13,44,21.20
2009,07,26,13,45,21.20
2009,07,26,13,46,21.10
2009,07,26,13,47,20.90
2009,07,26,13,48,20.80
2009,07,26,13,49,20.70
2009,07,26,13,50,20.80
2009,07,26,13,51,20.80
2009,07,26,13,52,20.80
2009,07,26,13,53,20.90
2009,07,26,13,54,21.00
2009,07,26,13,55,21.00
2009,07,26,13,56,21.00
2009,07,26,13,57,20.90
2009,07,26,13,58,20.90
2009,07,26,13,59,20.80
2009,07,26,14,00,20.70
2009,07,26,14,01,20.70
2009,07,26,14,02,20.60
2009,07,26,14,03,20.60
2009,07,26,14,04,20.60
2009,07,26,14,05,20.60
2009,07,26,14,06,20.60
2009,07,26,14,07,20.60
2009,07,26,14,08,20.60
2009,07,26,14,09,20.50
2009,07,26,14,10,20.50
2009,07,26,14,11,20.60
2009,07,26,14,12,20.60
2009,07,26,14,13,20.70
2009,07,26,14,14,20.80
2009,07,26,14,15,21.00
2009,07,26,14,16,21.10
2009,07,26,14,17,21.20
2009,07,26,14,18,21.30
2009,07,26,14,19,21.30
2009,07,26,14,20,21.30
2009,07,26,14,21,21.30
2009,07,26,14,22,21.20
2009,07,26,14,23,21.20
2009,07,26,14,24,21.30
2009,07,26,14,25,21.30
2009,07,26,14,26,21.40
2009,07,26,14,27,21.50
2009,07,26,14,28,21.60
2009,07,26,14,29,21.60
2009,07,26,14,30,21.70
2009,07,26,14,31,21.60
2009,07,26,14,32,21.60
2009,07,26,14,33,21.60
2009,07,26,14,34,21.60
2009,07,26,14,35,21.60
2009,07,26,14,36,21.60
2009,07,26,14,37,21.60
2009,07,26,14,38,21.60
2009,07,26,14,39,21.60
2009,07,26,14,40,21.70
2009,07,26,14,41,21.60
2009,07,26,14,42,21.60
2009,07,26,14,43,21.60
2009,07,26,14,44,21.60
2009,07,26,14,45,21.60
2009,07,26,14,46,21.60
2009,07,26,14,47,21.60
2009,07,26,14,48,21.70
2009,07,26,14,49,21.60
2009,07,26,14,50,21.60
2009,07,26,14,51,21.60
2009,07,26,14,52,21.60
2009,07,26,14,53,21.70
2009,07,26,14,54,21.70
2009,07,26,14,55,21.70
2009,07,26,14,56,21.70
2009,07,26,14,57,21.80
2009,07,26,14,58,21.80
2009,07,26,14,59,21.80
2009,07,26,15,00,21.80
2009,07,26,15,01,21.90
2009,07,26,15,02,21.90
2009,07,26,15,03,21.90
2009,07,26,15,04,21.90
2009,07,26,15,05,22.00
2009,07,26,15,06,22.00
2009,07,26,15,07,22.10
2009,07,26,15,08,22.10
2009,07,26,15,09,22.20
2009,07,26,15,10,22.20
2009,07,26,15,11,22.10
2009,07,26,15,12,22.20
2009,07,26,15,13,22.20
2009,07,26,15,14,22.20
2009,07,26,15,15,22.20
2009,07,26,15,16,22.30
2009,07,26,15,17,22.30
2009,07,26,15,18,22.30
2009,07,26,15,19,22.30
2009,07,26,15,20,22.30
2009,07,26,15,21,22.30
2009,07,26,15,22,22.30
2009,07,26,15,23,22.30
2009,07,26,15,24,22.30
2009,07,26,15,25,22.30
2009,07,26,15,26,22.20
2009,07,26,15,27,22.20
2009,07,26,15,28,22.20
2009,07,26,15,29,22.30
2009,07,26,15,30,22.30
2009,07,26,15,31,22.40
2009,07,26,15,32,22.40
2009,07,26,15,33,22.40
2009,07,26,15,34,22.40
2009,07,26,15,35,22.40
2009,07,26,15,36,22.40
2009,07,26,15,37,22.40
2009,07,26,15,38,22.30
2009,07,26,15,39,22.40
2009,07,26,15,40,22.40
2009,07,26,15,41,22.40
2009,07,26,15,42,22.30
2009,07,26,15,43,22.40
2009,07,26,15,44,22.40
2009,07,26,15,45,22.40
2009,07,26,15,46,22.40
2009,07,26,15,47,22.40
2009,07,26,15,48,22.30
2009,07,26,15,49,22.30
2009,07,26,15,50,22.20
2009,07,26,15,51,22.20
2009,07,26,15,52,22.20
2009,07,26,15,53,22.20
2009,07,26,15,54,22.20
2009,07,26,15,55,22.20
2009,07,26,15,56,22.30
2009,07,26,15,57,22.30
2009,07,26,15,58,22.30
2009,07,26,15,59,22.30
2009,07,26,16,00,22.20
2009,07,26,16,01,22.20
2009,07,26,16,02,22.20
2009,07,26,16,03,22.20
2009,07,26,16,04,22.20
2009,07,26,16,05,22.20
2009,07,26,16,06,22.20
2009,07,26,16,07,22.20
2009,07,26,16,08,22.30
2009,07,26,16,09,22.20
2009,07,26,16,10,22.20
2009,07,26,16,11,22.30
2009,07,26,16,12,22.30
2009,07,26,16,13,22.30
2009,07,26,16,14,22.30
2009,07,26,16,15,22.30
2009,07,26,16,16,22.30
2009,07,26,16,17,22.40
2009,07,26,16,18,22.40
2009,07,26,16,19,22.40
2009,07,26,16,20,22.40
2009,07,26,16,21,22.40
2009,07,26,16,22,22.40
2009,07,26,16,23,22.40
2009,07,26,16,24,22.40
2009,07,26,16,25,22.40
2009,07,26,16,26,22.30
2009,07,26,16,27,22.30
2009,07,26,16,28,22.30
2009,07,26,16,29,22.30
2009,07,26,16,30,22.30
2009,07,26,16,31,22.30
2009,07,26,16,32,22.30
2009,07,26,16,33,22.20
2009,07,26,16,34,22.20
2009,07,26,16,35,22.30
2009,07,26,16,36,22.30
2009,07,26,16,37,22.30
2009,07,26,16,38,22.30
2009,07,26,16,39,22.30
2009,07,26,16,40,22.30
2009,07,26,16,41,22.30
2009,07,26,16,42,22.30
2009,07,26,16,43,22.30
2009,07,26,16,44,22.30
2009,07,26,16,45,22.30
2009,07,26,16,46,22.30
2009,07,26,16,47,22.40
2009,07,26,16,48,22.40
2009,07,26,16,49,22.30
2009,07,26,16,50,22.20
2009,07,26,16,51,22.20
2009,07,26,16,52,22.10
2009,07,26,16,53,22.10
2009,07,26,16,54,22.00
2009,07,26,16,55,22.00
2009,07,26,16,56,21.80
2009,07,26,16,57,21.70
2009,07,26,16,58,21.60
2009,07,26,16,59,21.60
2009,07,26,17,00,21.60
2009,07,26,17,01,21.60
2009,07,26,17,02,21.50
2009,07,26,17,03,21.40
2009,07,26,17,04,21.30
2009,07,26,17,05,21.30
2009,07,26,17,06,21.30
2009,07,26,17,07,21.30
2009,07,26,17,08,21.30
2009,07,26,17,09,21.10
2009,07,26,17,10,21.10
2009,07,26,17,11,21.10
2009,07,26,17,12,21.00
2009,07,26,17,13,21.00
2009,07,26,17,14,21.10
2009,07,26,17,15,21.10
2009,07,26,17,16,21.10
2009,07,26,17,17,21.00
2009,07,26,17,18,21.10
2009,07,26,17,19,21.20